This is the latest recevied weather packets stored in our database for station/object SP1BMW-13. If no packets are shown the sender has not sent any weather packets the latest 10 day(s).
| Time | Temp. | Humidity | Pressure | Rain* | Wind** | Luminosity | Snow |
|---|---|---|---|---|---|---|---|
| 1787873537 | 18.33° C | 58% | 1015.5 hPa | 0 mm | 1.34 m/s, 45° | 0 W/m² | - |
| 1787873477 | 18.33° C | 59% | 1015.5 hPa | 0 mm | 0.89 m/s, 14° | 0 W/m² | - |
| 1787873417 | 18.33° C | 59% | 1015.6 hPa | 0 mm | 0.45 m/s, 49° | 0 W/m² | - |
| 1787873357 | 18.33° C | 58% | 1015.7 hPa | 0 mm | 0.45 m/s, 82° | 0 W/m² | - |
| 1787873297 | 18.33° C | 58% | 1015.6 hPa | 0 mm | 1.79 m/s, 92° | 0 W/m² | - |
| 1787873237 | 18.33° C | 58% | 1015.8 hPa | 0 mm | 0.89 m/s, 59° | 0 W/m² | - |
| 1787873177 | 18.33° C | 59% | 1015.7 hPa | 0 mm | 0.89 m/s, 27° | 0 W/m² | - |
| 1787873117 | 18.33° C | 59% | 1015.7 hPa | 0 mm | 1.34 m/s, 22° | 0 W/m² | - |
| 1787873057 | 18.33° C | 59% | 1015.8 hPa | 0 mm | 0.45 m/s, 132° | 0 W/m² | - |
| 1787872997 | 18.33° C | 59% | 1016 hPa | 0 mm | 0.89 m/s, 85° | 0 W/m² | - |
| 1787872937 | 18.33° C | 59% | 1015.7 hPa | 0 mm | 0.45 m/s, 17° | 0 W/m² | - |
| 1787872877 | 18.33° C | 59% | 1015.7 hPa | 0 mm | 0.89 m/s, 54° | 0 W/m² | - |
| 1787872817 | 18.33° C | 59% | 1015.8 hPa | 0 mm | 1.34 m/s, 100° | 0 W/m² | - |
| 1787872757 | 18.33° C | 59% | 1015.8 hPa | 0 mm | 0.45 m/s, 53° | 0 W/m² | - |
| 1787872697 | 18.33° C | 59% | 1015.9 hPa | 0 mm | 0.89 m/s, 39° | 0 W/m² | - |
| 1787872637 | 18.33° C | 59% | 1015.9 hPa | 0 mm | 1.34 m/s, 86° | 0 W/m² | - |
| 1787872577 | 18.33° C | 59% | 1015.9 hPa | 0 mm | 0.89 m/s, 67° | 0 W/m² | - |
| 1787872517 | 18.33° C | 59% | 1016 hPa | 0 mm | 0.45 m/s, 67° | 0 W/m² | - |
| 1787872457 | 18.33° C | 59% | 1015.9 hPa | 0 mm | 0.89 m/s, 82° | 0 W/m² | - |
| 1787872397 | 18.33° C | 59% | 1015.8 hPa | 0 mm | 0.89 m/s, 29° | 0 W/m² | - |
| 1787872337 | 18.33° C | 59% | 1016 hPa | 0 mm | 0.45 m/s, 186° | 0 W/m² | - |
| 1787872277 | 18.33° C | 59% | 1016 hPa | 0 mm | 0.89 m/s, 118° | 0 W/m² | - |
| 1787872217 | 18.33° C | 59% | 1015.9 hPa | 0 mm | 0.89 m/s, 29° | 0 W/m² | - |
| 1787872157 | 18.33° C | 59% | 1016.1 hPa | 0 mm | 1.34 m/s, 7° | 0 W/m² | - |
| 1787872097 | 18.33° C | 59% | 1016.1 hPa | 0 mm | 0.45 m/s, 76° | 0 W/m² | - |
* Rain latest hour (hover to see other rain measurements)
** Current wind speed in m/s (hover to see current wind gust speed)